{"data":{"norad_id":60377,"epoch":"2026-09-21T19:59:59.846784Z","epoch_age_seconds":70387,"freshness":"FRESH","line1":"1 60377U 24138Y   26264.83333156 -.00008440  00000+0 -26016-3 0  9998","line2":"2 60377  53.1600 117.4271 0001175  81.6220 278.4915 15.31743813120674","mean_motion":15.31743813,"eccentricity":0.0001175,"inclination_deg":53.16,"raan_deg":117.4271,"arg_perigee_deg":81.622,"mean_anomaly_deg":278.4915,"bstar":-0.00026016,"rev_number":12067,"period_min":94.010498869239,"perigee_km":469.8046663643,"apogee_km":471.4141217669,"semimajor_km":6848.7463940656,"source":"CELESTRAK","updated_at":"2026-09-22T09:00:49.228194Z"}}